UTA146 URML-UTAA

Flight info

Callsign UTA146
Flight time N/A
Altitude 35000
Route BALIP B491 BISNA M23 MARAL B450 MAMED
Aircraft B738/M-SDGIJ1LRWY/SB1

Departure

Time 2026-04-25 10:03
Airport Makhachkala Uytash International Airport (URML)

Arrival

Time N/A
Airport Ashgabat International Airport (UTAA)
Time Latitude Longitude Altitude Speed Heading
2026-04-25 09:42 42.81964 47.65571 23 ft 0 kts 58°
2026-04-25 09:55 42.81956 47.65556 23 ft 2 kts 57°
2026-04-25 09:55 42.81949 47.65538 23 ft 2 kts 58°
2026-04-25 09:56 42.81941 47.65521 23 ft 2 kts 57°
2026-04-25 09:56 42.81932 47.65504 23 ft 1 kts 66°
2026-04-25 09:56 42.81933 47.65485 23 ft 2 kts 127°
2026-04-25 09:56 42.81945 47.65474 23 ft 2 kts 155°
2026-04-25 09:57 42.81953 47.65468 23 ft 1 kts 145°
2026-04-25 09:57 42.81954 47.65468 23 ft 0 kts 145°
2026-04-25 09:58 42.81943 47.65477 23 ft 5 kts 145°
2026-04-25 09:59 42.81885 47.65528 23 ft 11 kts 148°
2026-04-25 09:59 42.81823 47.65589 23 ft 10 kts 175°
2026-04-25 09:59 42.81760 47.65545 23 ft 9 kts 221°
2026-04-25 09:59 42.81720 47.65476 23 ft 9 kts 236°
2026-04-25 10:00 42.81681 47.65389 23 ft 13 kts 238°
2026-04-25 10:00 42.81595 47.65321 23 ft 17 kts 156°
2026-04-25 10:00 42.81462 47.65434 23 ft 30 kts 148°
2026-04-25 10:00 42.81273 47.65594 23 ft 31 kts 147°
2026-04-25 10:01 42.81091 47.65749 23 ft 30 kts 148°
2026-04-25 10:01 42.80901 47.65911 23 ft 32 kts 149°
2026-04-25 10:01 42.80753 47.66073 23 ft 18 kts 112°
2026-04-25 10:01 42.80699 47.66079 23 ft 10 kts 304°
2026-04-25 10:02 42.80749 47.66033 23 ft 9 kts 329°
2026-04-25 10:02 42.80912 47.65897 23 ft 57 kts 327°
2026-04-25 10:02 42.81434 47.65449 23 ft 116 kts 329°
2026-04-25 10:02 42.82259 47.64748 49 ft 159 kts 328°
2026-04-25 10:03 42.83168 47.63945 619 ft 159 kts 328°
2026-04-25 10:03 42.84098 47.63139 1220 ft 161 kts 328°
2026-04-25 10:03 42.85035 47.62322 1858 ft 162 kts 330°
2026-04-25 10:03 42.86002 47.61527 2494 ft 165 kts 331°
2026-04-25 10:04 42.86975 47.60720 3148 ft 168 kts 330°
2026-04-25 10:04 42.87978 47.59854 3701 ft 176 kts 329°
2026-04-25 10:04 42.89051 47.58963 4184 ft 190 kts 335°
2026-04-25 10:04 42.90401 47.58715 4625 ft 208 kts 11°
2026-04-25 10:05 42.91753 47.59477 5281 ft 218 kts 33°
2026-04-25 10:05 42.92793 47.60997 5963 ft 226 kts 53°
2026-04-25 10:05 42.93658 47.62788 6662 ft 230 kts 53°
2026-04-25 10:05 42.94576 47.64562 7355 ft 233 kts 51°
2026-04-25 10:06 42.95562 47.66326 8034 ft 237 kts 49°
2026-04-25 10:06 42.96572 47.68097 8683 ft 241 kts 49°
2026-04-25 10:06 42.97600 47.69908 9341 ft 245 kts 49°
2026-04-25 10:06 42.98654 47.71777 9886 ft 251 kts 50°
2026-04-25 10:07 42.99719 47.73670 10024 ft 253 kts 50°
2026-04-25 10:07 43.00790 47.75577 10144 ft 253 kts 49°
2026-04-25 10:07 43.01856 47.77468 10152 ft 251 kts 50°
2026-04-25 10:07 43.02900 47.79359 10139 ft 251 kts 53°
2026-04-25 10:08 43.03688 47.81512 10135 ft 254 kts 75°
2026-04-25 10:08 43.03713 47.83918 10163 ft 260 kts 105°
2026-04-25 10:08 43.02951 47.86189 10643 ft 267 kts 127°
2026-04-25 10:08 43.01829 47.88182 11386 ft 266 kts 134°
2026-04-25 10:09 43.00617 47.90107 12003 ft 271 kts 136°
2026-04-25 10:09 42.99372 47.92053 12620 ft 275 kts 136°
2026-04-25 10:09 42.98117 47.94033 13281 ft 279 kts 137°
2026-04-25 10:09 42.96855 47.96041 13902 ft 282 kts 137°
2026-04-25 10:10 42.95574 47.98089 14532 ft 286 kts 137°
2026-04-25 10:10 42.94288 48.00142 15146 ft 289 kts 137°
2026-04-25 10:10 42.92972 48.02242 15729 ft 293 kts 137°
2026-04-25 10:10 42.91652 48.04343 16358 ft 294 kts 138°
2026-04-25 10:11 42.90255 48.06377 16774 ft 301 kts 143°
2026-04-25 10:11 42.88685 48.08352 17040 ft 314 kts 146°
2026-04-25 10:11 42.87011 48.10361 17346 ft 328 kts 146°
2026-04-25 10:11 42.85269 48.12455 17686 ft 340 kts 146°
2026-04-25 10:12 42.83481 48.14637 17978 ft 355 kts 145°
2026-04-25 10:12 42.81610 48.16951 18281 ft 369 kts 144°
2026-04-25 10:12 42.77710 48.21807 18817 ft 397 kts 144°
2026-04-25 10:13 42.75642 48.24382 19111 ft 410 kts 144°
2026-04-25 10:13 42.73526 48.27021 19622 ft 416 kts 144°
2026-04-25 10:13 42.71388 48.29689 20218 ft 418 kts 145°
2026-04-25 10:13 42.69248 48.32355 20799 ft 421 kts 146°
2026-04-25 10:14 42.67101 48.35030 21391 ft 422 kts 146°
2026-04-25 10:14 42.64920 48.37734 21792 ft 428 kts 146°
2026-04-25 10:14 42.62732 48.40447 22376 ft 428 kts 146°
2026-04-25 10:14 42.60530 48.43172 22833 ft 432 kts 147°
2026-04-25 10:15 42.58287 48.45941 23341 ft 434 kts 147°
2026-04-25 10:15 42.56069 48.48678 23792 ft 438 kts 147°
2026-04-25 10:15 42.53806 48.51465 24270 ft 441 kts 147°
2026-04-25 10:15 42.51582 48.54384 24782 ft 449 kts 143°
2026-04-25 10:16 42.49546 48.57663 25167 ft 462 kts 135°
2026-04-25 10:16 42.47781 48.61307 25598 ft 473 kts 129°
2026-04-25 10:16 42.46158 48.65250 26001 ft 480 kts 126°
2026-04-25 10:16 42.44655 48.69252 26437 ft 484 kts 124°
2026-04-25 10:17 42.43200 48.73333 26996 ft 484 kts 124°
2026-04-25 10:17 42.41752 48.77457 27145 ft 493 kts 124°
2026-04-25 10:17 42.40286 48.81634 27532 ft 495 kts 124°
2026-04-25 10:17 42.38795 48.85864 28070 ft 493 kts 124°
2026-04-25 10:18 42.37310 48.90044 28393 ft 497 kts 124°
2026-04-25 10:18 42.35799 48.94247 28703 ft 500 kts 125°
2026-04-25 10:18 42.34287 48.98425 29172 ft 500 kts 125°
2026-04-25 10:18 42.32758 49.02628 29669 ft 498 kts 126°
2026-04-25 10:19 42.31236 49.06806 30242 ft 494 kts 126°
2026-04-25 10:19 42.29733 49.10920 30750 ft 492 kts 126°
2026-04-25 10:19 42.28207 49.15075 31102 ft 494 kts 126°
2026-04-25 10:19 42.26689 49.19197 31491 ft 494 kts 126°
2026-04-25 10:20 42.25168 49.23318 31908 ft 493 kts 126°
2026-04-25 10:20 42.23627 49.27493 32384 ft 491 kts 126°
2026-04-25 10:20 42.22082 49.31661 32878 ft 487 kts 126°
2026-04-25 10:20 42.20556 49.35715 33266 ft 486 kts 127°
2026-04-25 10:21 42.19009 49.39780 33575 ft 487 kts 127°
2026-04-25 10:21 42.17451 49.43841 33846 ft 488 kts 127°
2026-04-25 10:21 42.15896 49.47885 34044 ft 492 kts 127°
2026-04-25 10:21 42.14326 49.51962 34357 ft 491 kts 127°
2026-04-25 10:22 42.12769 49.56020 34780 ft 488 kts 127°
2026-04-25 10:22 42.11227 49.60042 35098 ft 486 kts 127°
2026-04-25 10:22 42.09663 49.64109 35104 ft 489 kts 127°
2026-04-25 10:23 42.06540 49.72221 35109 ft 484 kts 128°
2026-04-25 10:23 42.03435 49.80273 35102 ft 483 kts 128°
2026-04-25 10:24 42.00294 49.88383 35112 ft 485 kts 128°
2026-04-25 10:24 41.97159 49.96471 35118 ft 484 kts 128°
2026-04-25 10:25 41.94034 50.04504 35115 ft 484 kts 128°
2026-04-25 10:25 41.90926 50.12475 35108 ft 486 kts 128°
2026-04-25 10:26 41.87784 50.20503 35105 ft 487 kts 128°
2026-04-25 10:26 41.84658 50.28474 35098 ft 487 kts 128°
2026-04-25 10:27 41.81491 50.36531 35100 ft 486 kts 128°
2026-04-25 10:27 41.78328 50.44553 35094 ft 488 kts 128°